Tracking 19562 objects as of 25-Mar-2019
HD Live streaming from Space Station
objects crossing your sky now

COSMOS 1791

Track COSMOS 1791 now!
10-day predictions
COSMOS 1791 is classified as:


NORAD ID: 17066
Int'l Code: 1986-086A
Perigee: 954.9 km
Apogee: 1,017.2 km
Inclination: 82.9 °
Period: 104.7 minutes
Semi major axis: 7357 km
RCS: 2.0797 m2 (large)
Launch date: November 13, 1986
Source: Commonwealth of Independent States (former USSR) (CIS)
Launch site: PLESETSK MISSILE AND SPACE COMPLEX (PKMTR)
aabbcc
Your satellite tracking list
Your tracking list is empty




NASA's NSSDC Master Catalog

Two Line Element Set (TLE):
1 17066U 86086A   19084.07231205  .00000024  00000-0  87682-5 0  9992
2 17066  82.9465  59.5377 0042281  59.8483  10.3309 13.75774671625014
Source of the keplerian elements: AFSPC